sat.trackr.live / text

‹ back to catalog

STARLINK-36190

NORAD 67029 · 2025-293AC

PAYLOAD ACTIVE UNKNOWN

§ Identity

Operator
Country
US
Launch date
2025-12-10
Launch site
AFWTR
Launch vehicle
Mass (kg)
RCS (m²)

Purposes: comms

External: N2YO · Heavens-Above · Gunter

§ Orbital elements

Epoch: 2026-09-20T13:31:09.783552Z

Period
96.11 min
Inclination
70.0012°
Eccentricity
0.0003620
Mean motion
14.98329281 rev/d
Perigee alt
569.5 km
Apogee alt
574.6 km
Semi-major
6,950.2 km
B*
3.0826e-4
RAAN
323.2862°
Arg perigee
270.2459°
Mean anomaly
89.8285°
Rev number
4,407

§ Raw data

STARLINK-361901 67029U 25293AC  26263.56330768  .00003587  00000+0  30826-3 0  99962 67029  70.0012 323.2862 0003620 270.2459  89.8285 14.98329281 44074

JSON: /api/v1/satellites/67029 · /tle

For live sub-satellite position, see the globe view (requires WebGL).

§ Visibility from observer

Set your observer location to see the next 7 days of passes ≥ 10°. The values pass through the URL so the page stays shareable.

No JS? Fill the form by hand. The geolocation button needs JavaScript.